Location: Pic du Midi - T1M
(42.9366°N, 0.1426°E)
Time: 04:56:29
(UTC+00:00)

Hubble Space Telescope - Visible Passes

Search period start: 20 January 2019 00:00
Search period end: 30 January 2019 00:00
Orbit: 537 x 540 km, 28.5° (Epoch: 19 January)

Date Brightness Start Highest point End Pass type
(mag) Time Alt. Az. Time Alt. Az. Time Alt. Az.
20 Jan 3.4 05:33:23 10° S 05:34:07 10° S 05:34:51 10° SSE visible
21 Jan 3.4 05:22:35 10° SSW 05:23:31 11° S 05:24:27 10° SSE visible
22 Jan 3.4 05:12:43 11° S 05:12:55 11° S 05:13:50 10° SSE visible
23 Jan 3.5 05:02:52 10° S 05:02:52 10° S 05:03:00 10° S visible
